This is the latest recevied weather packets stored in our database for station/object DO7CRZ-10. If no packets are shown the sender has not sent any weather packets the latest 10 day(s).
| Time | Temp. | Humidity | Pressure | Rain* | Wind** | Luminosity | Snow |
|---|---|---|---|---|---|---|---|
| 1777522417 | 2.22° C | 52% | 1030 hPa | - | - | - | - |
| 1777520671 | 0.56° C | 53% | 1030 hPa | - | - | - | - |
| 1777518926 | 0° C | 53% | 1030 hPa | - | - | - | - |
| 1777517180 | 0.56° C | 46% | 1030 hPa | - | - | - | - |
| 1777515434 | 0.56° C | 42% | 1030 hPa | - | - | - | - |
| 1777513688 | 0.56° C | 43% | 1030 hPa | - | - | - | - |
| 1777511942 | 1.11° C | 41% | 1030 hPa | - | - | - | - |
| 1777510197 | 1.11° C | 41% | 1030 hPa | - | - | - | - |
| 1777508451 | 1.67° C | 41% | 1030 hPa | - | - | - | - |
| 1777506705 | 2.22° C | 42% | 1030 hPa | - | - | - | - |
| 1777504959 | 2.22° C | 37% | 1030 hPa | - | - | - | - |
| 1777503213 | 3.33° C | 36% | 1030 hPa | - | - | - | - |
| 1777501467 | 3.33° C | 36% | 1030 hPa | - | - | - | - |
| 1777499721 | 3.89° C | 36% | 1030 hPa | - | - | - | - |
| 1777497976 | 5° C | 35% | 1029 hPa | - | - | - | - |
| 1777496230 | 5.56° C | 34% | 1029 hPa | - | - | - | - |
| 1777494484 | 5.56° C | 34% | 1029 hPa | - | - | - | - |
| 1777492738 | 7.22° C | 33% | 1029 hPa | - | - | - | - |
| 1777490992 | 7.22° C | 33% | 1029 hPa | - | - | - | - |
| 1777489247 | 7.78° C | 33% | 1029 hPa | - | - | - | - |
| 1777487501 | 8.33° C | 32% | 1028 hPa | - | - | - | - |
| 1777485755 | 9.44° C | 30% | 1028 hPa | - | - | - | - |
| 1777484009 | 10° C | 29% | 1028 hPa | - | - | - | - |
| 1777482263 | 10.56° C | 27% | 1027 hPa | - | - | - | - |
| 1777480517 | 11.67° C | 27% | 1027 hPa | - | - | - | - |
* Rain since midnight (hover to see other rain measurements)
** Current wind speed in m/s (hover to see current wind gust speed)